Weather History for Raton, NM

Change the Weather History Date:

Thursday, February 14, 2013

  Actual Average (KTAD) Record (KTAD)
Temperature  
Mean Temperature 30 °F 35 °F  
Max Temperature 46 °F 50 °F 75 °F (1979)
Min Temperature 15 °F 20 °F 3 °F (1951)
Degree Days  
Heating Degree Days 34 30  
Month to date heating degree days 440  
Since 1 July heating degree days 3722  
Cooling Degree Days 0 0  
Month to date cooling degree days 0  
Year to date cooling degree days 0  
Moisture  
Dew Point 13 °F    
Average Humidity 53    
Maximum Humidity 78    
Minimum Humidity 26    
Precipitation  
Precipitation 0.00 in 0.01 in 0.18 in (2003)
Month to date precipitation 0.22  
Year to date precipitation 0.62  
Sea Level Pressure  
Sea Level Pressure 30.11 in    
Wind  
Wind Speed 9 mph (NE)    
Max Wind Speed 28 mph    
Max Gust Speed 37 mph    
Visibility 10 miles    
Events Snow    
T = Trace of Precipitation, MM = Missing Value Source: NWS Daily Summary

Daily Weather History Graph

Daily Weather History Graph

Search for Another Location

Airport:

Trip Planner

Search our weather history database for the weather conditions in past years. The results will help you decide how hot, cold, wet, or windy it might be!

Date:

Astronomy

Feb. 14, 2013 Rise Set
Actual Time 6:47 AM MST 5:37 PM MST
Civil Twilight 6:20 AM MST 6:04 PM MST
Nautical Twilight 5:50 AM MST 6:34 PM MST
Astronomical Twilight 5:20 AM MST 7:04 PM MST
Moon 8:59 AM MST (2/14) 10:33 PM MST (2/14)
Length of Visible Light 11h 43m
Length of Day
10h 50m
Waxing Crescent, 22% of the Moon is Illuminated
Feb 14
Waxing Crescent
Feb 17
First Quarter
Feb 25
Full
Mar 4
Last Quarter
Mar 11
New

Hourly Weather History & Observations

Time (MST) Temp. Windchill Dew Point Humidity Pressure Visibility Wind Dir Wind Speed Gust Speed Precip Events Conditions
12:53 AM 21.0 °F 12.4 °F 8.1 °F 57% 30.01 in 10.0 mi NNE 6.9 mph - N/A   Clear
1:53 AM 18.0 °F 11.1 °F 7.0 °F 62% 30.01 in 10.0 mi NNE 4.6 mph - N/A   Clear
2:53 AM 16.0 °F 6.3 °F 7.0 °F 68% 30.02 in 10.0 mi ENE 6.9 mph - N/A   Clear
3:53 AM 15.1 °F 2.5 °F 6.1 °F 68% 30.02 in 10.0 mi ENE 10.4 mph - N/A   Clear
4:53 AM 17.1 °F 6.6 °F 7.0 °F 65% 30.03 in 10.0 mi ENE 8.1 mph - N/A   Clear
5:53 AM 16.0 °F 5.3 °F 7.0 °F 68% 30.08 in 10.0 mi ENE 8.1 mph - N/A   Clear
6:53 AM 17.1 °F 5.0 °F 8.1 °F 68% 30.12 in 10.0 mi NNE 10.4 mph - N/A   Clear
7:53 AM 25.0 °F 16.3 °F 10.9 °F 55% 30.08 in 10.0 mi East 8.1 mph - N/A   Clear
8:53 AM 33.1 °F 27.7 °F 12.0 °F 42% 30.10 in 10.0 mi East 5.8 mph - N/A   Clear
9:53 AM 37.9 °F 34.4 °F 16.0 °F 41% 30.08 in 10.0 mi East 4.6 mph - N/A   Clear
10:53 AM 39.9 °F 36.7 °F 12.9 °F 33% 30.07 in 10.0 mi South 4.6 mph - N/A   Clear
11:53 AM 39.9 °F 37.8 °F 12.0 °F 32% 30.05 in 10.0 mi Variable 3.5 mph - N/A   Clear
12:53 PM 44.1 °F 40.1 °F 12.9 °F 28% 30.02 in 10.0 mi SSW 6.9 mph - N/A   Scattered Clouds
1:53 PM 45.0 °F 43.5 °F 12.9 °F 27% 30.02 in 10.0 mi West 3.5 mph - N/A   Overcast
2:53 PM 46.0 °F 38.0 °F 12.9 °F 26% 30.04 in 10.0 mi ENE 21.9 mph 26.5 mph N/A   Overcast
3:12 PM 44.6 °F 37.4 °F 12.2 °F 27% 30.03 in 10.0 mi ENE 16.1 mph - N/A   Overcast
3:53 PM 43.0 °F 35.7 °F 10.9 °F 27% 30.09 in 10.0 mi NE 15.0 mph 21.9 mph N/A   Overcast
4:53 PM 39.0 °F 30.6 °F 18.0 °F 43% 30.14 in 10.0 mi NNE 15.0 mph 20.7 mph N/A   Overcast
5:49 PM 30.2 °F 15.7 °F 19.4 °F 64% 30.13 in 10.0 mi NNE 27.6 mph 36.8 mph 0.00 in   Overcast
5:53 PM 30.9 °F 17.2 °F 19.0 °F 61% 30.23 in 10.0 mi NNE 25.3 mph 36.8 mph 0.00 in   Overcast
6:53 PM 28.9 °F 17.3 °F 17.1 °F 61% 30.28 in 10.0 mi North 16.1 mph - N/A   Overcast
7:53 PM 28.0 °F 16.5 °F 18.0 °F 66% 30.26 in 10.0 mi NNE 15.0 mph - N/A   Overcast
8:53 PM 27.0 °F 18.0 °F 19.0 °F 72% 30.25 in 10.0 mi North 9.2 mph - 0.00 in Snow Light Snow
9:53 PM 25.0 °F 15.5 °F 19.0 °F 78% 30.25 in 9.0 mi NNE 9.2 mph - 0.00 in Snow Light Snow
10:53 PM 24.1 °F 13.7 °F 16.0 °F 71% 30.25 in 10.0 mi NNE 10.4 mph - 0.00 in   Overcast
11:53 PM 24.1 °F 13.1 °F 16.0 °F 71% 30.25 in 10.0 mi NE 11.5 mph - N/A   Overcast